Regional Weather Roundup
Issued by NWS

Home | Current Version | Previous Version | Text Only | Print | Product List | Glossary On
Versions: 1 2 3 4 5 6 7 8 9 10 11 12 13 14 15 16 17 18 19 20 21 22 23 24 25 26 27 28 29 30 31 32 33 34 35 36 37 38 39 40 41 42 43 44 45 46 47 48 49 50
000
ASUS43 KBIS 302302
RWRND

NORTH DAKOTA REGIONAL WEATHER ROUNDUP
NATIONAL WEATHER SERVICE BISMARCK ND
600 PM CDT SUN AUG 30 2015

NOTE: "FAIR" INDICATES FEW OR NO CLOUDS BELOW 12,000 FEET WITH NO
SIGNIFICANT WEATHER AND/OR OBSTRUCTIONS TO VISIBILITY.


NDZ001>003-009>011-017-310000-
NORTHWEST NORTH DAKOTA

CITY           SKY/WX    TMP DP  RH WIND       PRES   REMARKS
WILLISTON      PTSUNNY   85  43  22 N14       29.71F
MINOT          CLOUDY    84  56  38 W15G23    29.65R HAZE
MINOT AFB      PTSUNNY   85  58  38 NW15      29.64R
$$

NDZ018>021-031>035-040>046-310000-
SOUTHWEST NORTH DAKOTA

CITY           SKY/WX    TMP DP  RH WIND       PRES   REMARKS
BISMARCK       MOSUNNY   98  58  26 S7        29.63F HX  97
DICKINSON      MOSUNNY   87  50  27 N14       29.73  HAZE
GARRISON         N/A     90  54  29 NW12G24   29.67R
HETTINGER ARPT MOSUNNY   95  46  18 N12       29.73F HX  91
$$

NDZ004>008-012>016-024-026-027-054-310000-
NORTHEAST NORTH DAKOTA

CITY           SKY/WX    TMP DP  RH WIND       PRES   REMARKS
GRAND FORKS    CLOUDY    84  68  58 S14G26    29.67S
GRND FRKS AFB  PTSUNNY   84  71  64 S18G25    29.67S
DEVILS LAKE    PTSUNNY   86  66  51 S13       29.64S
$$

NDZ022-023-025-028>030-036>039-047>053-310000-
SOUTHEAST NORTH DAKOTA

CITY           SKY/WX    TMP DP  RH WIND       PRES   REMARKS
FARGO          MOSUNNY   86  68  54 SE15G28   29.72F
JAMESTOWN      PTSUNNY   84  68  58 S17G23    29.68F
$$



USA.gov is the U.S. government's official web portal to all federal, state and local government web resources and services.